TimeEDT,TemperatureF,Dew PointF,Humidity,Sea Level PressureIn,VisibilityMPH,Wind Direction,Wind SpeedMPH,Gust SpeedMPH,PrecipitationIn,Events,Conditions,WindDirDegrees,DateUTC
12:54 AM,64.9,52.0,63,29.98,10.0,SSW,8.1,-,N/A,,Clear,210,2013-04-09 04:54:00
1:54 AM,64.9,52.0,63,29.97,10.0,SSW,10.4,-,N/A,,Mostly Cloudy,210,2013-04-09 05:54:00
2:54 AM,64.0,51.1,63,29.95,10.0,SW,8.1,-,N/A,,Partly Cloudy,220,2013-04-09 06:54:00
3:54 AM,62.1,51.1,67,29.96,10.0,WSW,5.8,-,N/A,,Clear,240,2013-04-09 07:54:00
4:54 AM,62.1,51.1,67,29.97,10.0,WSW,8.1,-,N/A,,Clear,240,2013-04-09 08:54:00
5:54 AM,60.1,51.1,72,29.98,10.0,SSW,3.5,-,N/A,,Clear,200,2013-04-09 09:54:00
6:54 AM,60.1,51.1,72,30.00,10.0,SW,5.8,-,N/A,,Clear,230,2013-04-09 10:54:00
7:54 AM,62.1,51.1,67,30.02,10.0,WSW,6.9,-,N/A,,Clear,240,2013-04-09 11:54:00
8:54 AM,66.0,50.0,56,30.01,10.0,SW,11.5,-,N/A,,Clear,230,2013-04-09 12:54:00
9:54 AM,73.9,50.0,43,30.02,10.0,WNW,11.5,-,N/A,,Clear,300,2013-04-09 13:54:00
10:54 AM,75.9,48.9,38,30.02,10.0,WNW,16.1,25.3,N/A,,Clear,290,2013-04-09 14:54:00
11:54 AM,78.1,50.0,37,30.01,10.0,WNW,15.0,23.0,N/A,,Clear,290,2013-04-09 15:54:00
12:54 PM,80.1,46.9,31,30.00,10.0,WNW,16.1,25.3,N/A,,Clear,290,2013-04-09 16:54:00
1:54 PM,81.0,46.0,29,29.99,10.0,NW,11.5,21.9,N/A,,Clear,310,2013-04-09 17:54:00
2:54 PM,81.0,44.1,27,29.98,10.0,West,16.1,24.2,N/A,,Clear,270,2013-04-09 18:54:00
3:02 PM,80.6,42.8,26,29.98,10.0,WNW,15.0,24.2,N/A,,Clear,290,2013-04-09 19:02:00
3:54 PM,82.0,45.0,27,29.96,10.0,NW,13.8,18.4,N/A,,Clear,310,2013-04-09 19:54:00
4:54 PM,82.0,44.1,26,29.95,10.0,West,6.9,18.4,N/A,,Clear,280,2013-04-09 20:54:00
5:54 PM,81.0,43.0,26,29.96,10.0,West,11.5,19.6,N/A,,Clear,280,2013-04-09 21:54:00
6:54 PM,79.0,44.1,29,29.96,10.0,West,9.2,-,N/A,,Clear,280,2013-04-09 22:54:00
7:54 PM,77.0,44.1,31,29.97,10.0,West,3.5,-,N/A,,Clear,270,2013-04-09 23:54:00
8:54 PM,75.9,46.0,35,29.98,10.0,SSW,3.5,-,N/A,,Clear,200,2013-04-10 00:54:00
9:54 PM,73.9,48.9,41,29.98,10.0,SSW,4.6,-,N/A,,Mostly Cloudy,210,2013-04-10 01:54:00
10:54 PM,73.0,51.1,46,29.94,10.0,SSW,8.1,-,N/A,,Clear,210,2013-04-10 02:54:00
11:54 PM,72.0,51.1,48,29.92,10.0,SSW,9.2,-,N/A,,Clear,210,2013-04-10 03:54:00